Regional Weather Roundup
Issued by NWS Cleveland, OH

Home | Current Version | Previous Version | Graphics & Text | Print | Product List | Glossary On
Versions: 1 2 3 4 5 6 7 8 9 10 11 12 13 14 15 16 17 18 19 20 21 22 23 24 25 26 27 28 29 30 31 32 33 34 35 36 37 38 39 40 41 42 43 44 45 46 47 48 49 50
000
ASUS41 KCLE 040010
RWRCLE
OHIO REGIONAL WEATHER ROUNDUP
NATIONAL WEATHER SERVICE WILMINGTON, OH
800 PM EDT THU SEP 03 2015

NOTE: "FAIR" INDICATES FEW OR NO CLOUDS BELOW 12,000 FEET WITH NO
SIGNIFICANT WEATHER AND/OR OBSTRUCTIONS TO VISIBILITY.

OHZ001>008-015>018-024>027-034-035-043-044-040100-
   NORTHWEST OHIO

CITY           SKY/WX    TMP DP  RH WIND       PRES   REMARKS
DEFIANCE       PTCLDY    86  67  52 VRB3      29.90S
FINDLAY        MOCLDY    82  72  71 SW5       29.91S
TOLEDO EXPRESS MOCLDY    81  70  69 SW6       29.88F
TOLEDO EXEC    MOCLDY    83  68  60 S6        29.89F
LIMA           PTCLDY    82  68  62 SW5       29.94R
$$

OHZ009>014-019>023-028>033-038-089-040100-
   NORTHEAST OHIO

CITY           SKY/WX    TMP DP  RH WIND       PRES   REMARKS
CLE-HOPKINS    CLOUDY    75  63  66 SE3       29.95F
CLE-LAKEFRONT  MOCLDY    79  64  60 E8        29.93F
CUY CO. ARPT   CLOUDY    77  68  73 SE6       29.96F
LORAIN-ELYRIA  MOCLDY    74  67  78 CALM      29.94F
ASHTABULA      PTCLDY    72  67  84 CALM      29.99R
AKRON-CANTON   CLOUDY    70  66  87 NE7       29.97F
WOOSTER        CLOUDY    69  67  93 S3        29.97F
MANSFIELD      MOCLDY    76  66  71 SE10      29.96F
YOUNGSTOWN     TSTM      70  66  87 NW7       29.98R FOG
$$

OHZ042-051>053-060>062-070>072-077>081-040100-
  SOUTHWEST OHIO

CITY           SKY/WX    TMP DP  RH WIND       PRES   REMARKS
CINC-COVINGTON PTCLDY    83  65  54 W5        29.95S
CINC-LUNKEN    PTCLDY    80  71  74 CALM      29.94R
HAMILTON       CLEAR     78  70  76 CALM      29.95R
DAYTON         PTCLDY    80  67  64 SW7       29.96R
WRIGHT-PAT AFB PTCLDY    82  66  58 SW6       29.94R
DAYTON GENERAL CLEAR     85  65  51 W3        29.95R
WILMINGTON     CLEAR     80  67  64 CALM      29.96R
$$

OHZ036-037-039>041-045>050-054>059-063>069-073>076-082>088-040100-
  CENTRAL AND SOUTHEAST OHIO

CITY           SKY/WX    TMP DP  RH WIND       PRES   REMARKS
COLUMBUS       TSTM      73  67  81 S8        29.96R
OSU AIRPORT    MOCLDY    78  65  63 E12       29.94S
BOLTON FIELD   CLOUDY    81  69  67 SE5       29.95R
RICKENBACK AFB MOCLDY    80  68  68 NE20G31   29.97R THUNDER
NEWARK         MOCLDY    73  67  81 SE3       29.95S
MARION         CLOUDY    77  68  73 SE10      29.94F
LANCASTER      CLOUDY    79  64  60 E14       29.96R THUNDER
ZANESVILLE     MOCLDY    72  68  87 NE6       29.97S
NEW PHILLY     CLOUDY    71  70  96 CALM      29.97F FOG
$$



USA.gov is the U.S. government's official web portal to all federal, state and local government web resources and services.